Alabaster, AL

8:20 PM CDT on April 22, 2018 (GMT -0500)
Shelby County

Weather History for KEET - April, 2014

Change the Weather History Date:

Wednesday, April 2, 2014

  Actual Average Record
Temperature  
Mean Temperature 67 °F 59 °F  
Max Temperature 80 °F 71 °F 84 °F (1963)
Min Temperature 54 °F 48 °F 28 °F (1962)
Degree Days  
Heating Degree Days 0 7  
Month to date heating degree days 0 14  
Since 1 July heating degree days 2622 2452  
Cooling Degree Days 2 1  
Month to date cooling degree days 3 2  
Year to date cooling degree days 7 19  
Growing Degree Days 16 (Base 50)    
Moisture  
Dew Point 56 °F    
Average Humidity 71    
Maximum Humidity 93    
Minimum Humidity 48    
Precipitation  
Precipitation 0.00 in 0.13 in 2.18 in (1975)
Month to date precipitation T 0.27  
Year to date precipitation 15.43 15.83  
Snow  
Snow 0.00 in - - ()
Month to date snowfall 0.0  
Since 1 July snowfall 1.3  
Snow Depth 0.00 in    
Sea Level Pressure  
Sea Level Pressure 30.10 in    
Wind  
Wind Speed 6 mph (South)    
Max Wind Speed 13 mph    
Max Gust Speed 20 mph    
Visibility 9 miles    
Events      
T = Trace of Precipitation, MM = Missing Value Source: NWS Daily Summary

Daily Weather History Graph

Daily Weather History Graph

Search for Another Location

Airport or City:

Astronomy

Apr. 02, 2014 Rise Set
Actual Time 6:33 AM CDT 7:08 PM CDT
Civil Twilight 6:08 AM CDT 7:33 PM CDT
Nautical Twilight 5:39 AM CDT 8:02 PM CDT
Astronomical Twilight 5:09 AM CDT 8:32 PM CDT
Moon 8:25 AM CDT (4/2) 10:21 PM CDT (4/2)
Length of Visible Light 13h 24m
Length of Day
12h 34m
Waxing Crescent, 10% of the Moon is Illuminated
Apr 2
Waxing Crescent
Apr 7
First Quarter
Apr 15
Full
Apr 22
Last Quarter
Apr 29
New

Hourly Weather History & Observations

Time (CDT) Temp. Dew Point Humidity Pressure Visibility Wind Dir Wind Speed Gust Speed Precip Events Conditions
12:53 AM 63.0 °F 46.9 °F 56% 30.08 in 10.0 mi South 5.8 mph - N/A   Mostly Cloudy
1:53 AM 62.1 °F 46.9 °F 58% 30.07 in 10.0 mi SSW 4.6 mph - N/A   Overcast
2:53 AM 60.1 °F 46.9 °F 62% 30.07 in 10.0 mi South 5.8 mph - N/A   Clear
3:53 AM 57.9 °F 48.0 °F 70% 30.08 in 10.0 mi South 4.6 mph - N/A   Clear
4:53 AM 55.9 °F 48.0 °F 75% 30.08 in 10.0 mi South 4.6 mph - N/A   Clear
5:53 AM 55.0 °F 48.9 °F 80% 30.09 in 10.0 mi SSE 3.5 mph - N/A   Clear
7:36 AM 55.9 °F 53.1 °F 90% 30.13 in 9.0 mi South 3.5 mph - N/A   Scattered Clouds
7:40 AM 55.9 °F 53.1 °F 90% 30.13 in 8.0 mi South 3.5 mph - N/A   Mostly Cloudy
7:53 AM 55.9 °F 54.0 °F 93% 30.13 in 8.0 mi South 6.9 mph - N/A   Mostly Cloudy
8:19 AM 55.9 °F 54.0 °F 93% 30.14 in 6.0 mi South 4.6 mph - N/A   Overcast
8:43 AM 57.0 °F 55.0 °F 93% 30.14 in 7.0 mi Variable 4.6 mph - N/A   Overcast
8:53 AM 57.9 °F 55.0 °F 90% 30.14 in 7.0 mi SSW 4.6 mph - N/A   Overcast
9:53 AM 60.1 °F 57.0 °F 90% 30.16 in 9.0 mi South 5.8 mph - N/A   Overcast
10:53 AM 63.0 °F 59.0 °F 87% 30.15 in 10.0 mi SSW 4.6 mph - N/A   Overcast
11:00 AM 64.0 °F 59.0 °F 84% 30.16 in 10.0 mi SSW 3.5 mph - N/A   Overcast
11:32 AM 66.9 °F 60.1 °F 79% 30.15 in 10.0 mi Variable 3.5 mph - N/A   Mostly Cloudy
11:53 AM 66.9 °F 60.1 °F 79% 30.14 in 10.0 mi Variable 5.8 mph - N/A   Mostly Cloudy
12:49 PM 71.6 °F 60.8 °F 69% 30.13 in 10.0 mi South 6.9 mph - N/A   Scattered Clouds
12:53 PM 72.0 °F 61.0 °F 68% 30.11 in 10.0 mi South 5.8 mph - N/A   Partly Cloudy
1:53 PM 75.0 °F 60.1 °F 60% 30.08 in 10.0 mi SW 8.1 mph - N/A   Scattered Clouds
2:53 PM 77.0 °F 57.9 °F 52% 30.06 in 10.0 mi SSW 6.9 mph - N/A   Partly Cloudy
3:53 PM 78.1 °F 57.9 °F 50% 30.05 in 10.0 mi WSW 8.1 mph - N/A   Mostly Cloudy
5:53 PM 77.0 °F 60.1 °F 56% 30.06 in 10.0 mi West 5.8 mph - N/A   Scattered Clouds
6:53 PM 75.0 °F 61.0 °F 62% 30.04 in 9.0 mi SSE 4.6 mph - N/A   Clear
7:53 PM 70.0 °F 61.0 °F 73% 30.05 in 10.0 mi Calm Calm - N/A   Clear
8:53 PM 70.0 °F 61.0 °F 73% 30.04 in 10.0 mi SSE 4.6 mph - N/A   Clear
9:53 PM 71.1 °F 59.0 °F 66% 30.04 in 10.0 mi South 8.1 mph - N/A   Clear
10:53 PM 70.0 °F 60.1 °F 71% 30.04 in 10.0 mi South 6.9 mph - N/A   Clear
11:53 PM 69.1 °F 61.0 °F 75% 30.04 in 10.0 mi South 5.8 mph - N/A   Clear